Probability
16 16 14 11 11 10 10 10 10 10 10 10 9 9 10 12 14 16 16 15 13 12 10 9 8 8 9 10 9 8 7 7 6 4 5 9 10 9 8 7 5 4 4
15 15 14 13 11 11 10 10 9 9 10 10 9 10 11 12 15 16 15 14 13 12 11 10 10 9 10 12 11 9 7 6 5 4 5 9 10 9 8 7 5 4 5
13 13 14 14 13 11 10 10 9 9 9 9 8 10 11 13 15 16 15 13 13 13 12 12 12 12 12 13 13 10 6 6 6 5 5 8 9 8 8 5 5 6 6
11 11 13 14 14 12 10 10 10 9 9 7 7 8 10 11 13 15 15 14 13 13 13 13 13 13 13 14 14 12 9 7 6 5 5 7 8 8 7 4 4 6 6
10 10 11 12 12 10 10 10 9 8 7 7 6 7 7 9 10 11 13 13 13 13 14 14 13 13 12 12 12 12 11 9 7 6 7 8 9 9 7 5 4 5 6
11 10 10 9 8 7 8 9 8 7 6 6 6 6 7 7 7 7 8 10 12 13 14 14 13 12 9 8 7 7 8 7 7 7 8 11 12 10 8 6 5 4 4
12 11 10 8 6 6 6 6 7 6 5 5 5 6 7 6 5 4 5 7 10 12 14 14 13 12 9 7 5 5 6 6 6 7 9 12 12 11 10 8 6 5 4
13 12 10 9 7 6 5 5 5 4 4 4 4 5 7 7 4 3 3 5 9 12 13 13 13 13 11 8 6 6 8 7 6 6 8 8 8 8 9 8 6 5 4
14 12 10 9 8 7 5 4 3 3 3 3 4 5 7 7 4 1 2 5 9 12 13 12 12 12 10 7 5 7 7 7 5 4 5 5 4 5 5 6 6 5 4
12 9 7 6 7 7 5 3 3 3 2 3 4 5 7 8 5 1 2 6 9 11 11 12 10 8 6 4 5 7 7 6 5 4 3 3 4 4 3 4 5 5 4
8 6 4 4 6 6 6 5 5 4 4 5 6 6 7 8 7 2 1 4 8 9 10 11 9 4 2 2 4 6 7 6 6 6 4 4 5 6 5 4 5 5 5
5 5 6 7 7 7 7 7 6 6 6 7 7 6 6 8 8 4 1 2 4 7 9 9 7 2 0 1 3 4 5 5 7 7 6 6 6 7 7 7 6 6 5
5 7 10 12 11 9 8 8 7 6 6 7 7 6 5 7 7 5 2 1 2 4 6 5 3 1 0 1 2 2 3 5 7 8 8 7 6 7 9 9 7 6 5
8 11 14 15 14 11 10 10 9 7 6 7 8 7 6 6 7 5 3 2 2 2 3 3 2 2 1 2 2 2 3 5 6 7 7 7 7 9 10 9 8 6 4
12 13 15 15 14 13 12 11 9 7 6 6 7 7 6 6 6 5 4 4 3 2 2 2 3 5 4 3 4 4 4 5 6 6 6 7 8 9 9 9 9 7 4
13 12 12 12 12 11 11 10 7 5 4 4 5 5 4 4 4 3 3 3 2 1 1 3 5 7 6 4 5 5 4 5 8 8 8 8 9 9 9 10 9 7 5
11 10 10 9 9 9 9 9 6 4 3 3 3 3 2 2 1 1 1 1 1 0 1 3 5 5 5 4 5 5 4 6 8 9 10 10 9 8 8 8 8 8 6
8 8 8 8 7 7 8 9 7 4 3 3 3 1 1 1 0 0 0 0 0 0 1 3 5 5 5 6 7 6 6 7 8 9 10 10 8 7 8 9 8 6 6
6 6 6 6 6 6 7 8 6 3 2 2 2 1 1 0 0 0 0 0 0 1 2 3 5 5 6 7 8 8 8 8 8 8 9 9 8 8 10 10 7 5 4
4 3 3 4 5 6 6 6 4 1 0 1 1 1 1 1 1 1 1 1 1 1 3 3 4 5 7 7 7 7 6 6 6 7 7 8 8 9 10 9 7 5 4
3 2 2 3 4 4 4 4 3 1 0 0 0 1 1 1 2 2 2 2 2 2 2 2 3 4 5 6 5 4 3 3 4 4 5 6 8 9 9 8 8 7 7
3 2 2 3 3 3 3 3 3 2 1 0 0 0 0 1 1 1 1 2 2 1 1 2 2 2 2 3 3 2 1 1 2 3 4 5 6 7 7 7 8 8 7
3 2 3 3 3 3 3 3 3 2 1 0 0 0 0 0 0 0 0 1 1 1 1 2 2 1 1 2 2 2 1 1 2 4 4 5 4 4 5 6 6 5 4
3 3 3 3 3 3 3 3 3 2 1 0 0 0 0 0 0 0 0 0 0 0 1 2 2 2 2 3 3 3 3 3 3 5 6 5 4 4 4 4 3 2 1
3 3 3 3 3 3 3 3 2 1 0 0 0 0 0 0 0 0 0 0 0 0 1 2 3 3 3 3 3 3 3 2 2 3 5 5 4 4 4 3 1 0 0
3 3 3 3 3 3 3 2 1 0 0 0 0 0 0 0 0 0 0 0 0 1 2 2 3 3 3 3 3 3 2 1 1 1 3 5 5 4 2 2 1 0 0
Wind_Speed
2 2 2 2 1 1 1 1 1 2 2 3 3 3 3 4 4 4 4 4 4 4 4 4 5 4 3 3 3 3 3 3 3 2 2 1 2 3 2 3 4 4 4
2 2 2 1 1 2 2 2 2 2 3 3 3 4 4 4 4 4 5 5 4 5 5 4 5 4 4 4 3 4 3 3 4 4 3 2 3 3 3 4 4 3 3
2 2 2 2 2 2 2 2 3 3 3 3 4 4 4 4 5 5 5 5 5 4 4 5 5 5 5 4 5 4 4 4 4 4 4 2 2 2 3 4 4 3 4
2 2 2 2 3 3 2 3 3 3 3 3 4 4 4 4 5 5 5 5 4 4 4 5 5 5 5 5 5 5 4 4 4 5 4 3 3 2 3 3 3 3 3
2 2 2 3 3 3 3 3 3 4 3 3 4 4 4 4 4 4 4 4 4 4 4 4 5 4 3 3 4 4 4 4 4 4 4 4 3 2 3 3 3 3 3
3 3 2 3 3 3 3 4 4 4 4 4 4 4 4 3 1 1 4 4 4 4 4 4 5 5 4 4 3 3 4 5 5 5 4 4 3 4 3 4 4 4 3
3 3 3 3 3 4 4 4 4 4 4 5 5 4 4 3 2 3 4 4 4 4 4 4 4 3 5 5 5 6 5 5 6 6 6 5 4 4 4 5 3 4 4
3 3 3 3 3 4 4 4 4 4 4 4 4 5 4 4 4 5 5 6 5 5 5 5 5 4 4 4 5 5 5 6 7 7 6 5 5 4 4 5 5 5 5
2 2 3 3 3 4 4 4 4 4 4 4 5 5 5 4 5 5 6 5 5 6 6 6 5 6 3 4 6 6 6 5 5 5 5 4 3 4 5 5 5 5 5
2 3 3 3 3 4 3 3 3 3 4 4 4 4 5 5 5 7 7 6 5 5 5 5 6 6 4 5 7 7 7 6 5 5 6 7 8 7 8 7 6 6 5
2 3 3 3 4 4 3 3 3 3 3 3 3 4 4 4 5 6 7 6 5 5 4 4 4 7 7 7 7 7 6 5 5 6 6 6 6 6 6 6 6 6 5
3 3 3 3 3 3 3 3 3 3 3 3 4 4 3 4 4 5 6 7 6 5 5 4 2 6 7 8 7 6 5 6 6 6 6 5 5 5 4 4 5 6 5
3 3 3 3 3 3 3 3 3 3 3 3 3 3 3 3 3 4 6 7 7 6 4 2 2 5 7 7 9 8 8 7 6 7 6 6 5 4 4 4 5 6 7
3 3 3 3 3 2 3 3 3 3 3 3 3 3 3 3 3 3 4 4 6 6 5 4 6 7 7 5 6 8 7 6 6 6 6 5 5 4 5 5 4 4 5
3 3 3 3 3 2 2 2 3 2 2 3 3 3 3 3 1 2 2 3 3 2 2 3 4 4 5 5 5 5 5 6 7 7 6 5 5 5 5 5 5 5 6
3 3 3 3 2 3 3 2 0 1 1 2 4 4 2 2 1 1 3 3 1 1 3 4 4 4 4 4 4 4 4 4 5 5 5 5 5 6 5 5 5 5 6
3 3 3 3 2 3 3 3 2 2 2 3 3 3 3 2 2 2 3 3 2 4 5 5 4 4 4 4 4 4 4 4 4 5 5 5 5 5 5 5 5 6 6
3 2 3 3 3 2 2 3 3 3 3 3 4 5 4 3 3 3 3 3 3 5 5 4 4 4 4 4 4 4 4 4 4 5 5 5 5 5 5 5 5 5 6
3 2 2 2 3 2 2 3 3 3 2 2 2 2 3 3 3 3 4 4 3 3 4 4 4 4 4 4 4 4 4 3 4 4 5 5 5 6 5 5 5 5 6
2 1 2 3 3 2 2 2 2 1 2 2 2 1 1 2 2 2 3 3 3 2 3 3 3 3 3 4 3 4 3 3 4 4 4 5 5 5 6 6 5 5 5
2 2 3 3 3 2 2 2 1 1 2 2 2 2 2 2 3 2 2 2 2 2 2 2 3 3 3 3 3 3 3 3 3 3 4 4 4 4 4 5 5 5 5
3 2 2 3 3 2 2 2 2 2 2 3 2 1 2 3 2 2 2 1 2 2 2 2 2 2 2 3 3 3 3 3 3 3 3 4 4 4 5 5 5 5 5
3 3 3 3 3 2 3 3 3 3 3 3 3 2 1 2 2 2 2 2 2 2 2 2 2 3 2 2 2 3 3 3 3 3 4 4 4 4 4 5 6 6 5
3 3 3 3 3 3 3 3 3 3 3 3 3 3 2 2 2 2 2 2 2 2 2 2 2 3 4 3 2 2 2 4 4 4 4 4 4 4 4 4 5 5 5
3 3 3 3 3 3 3 3 3 3 3 3 3 2 2 2 2 2 2 2 2 2 2 2 2 2 2 3 3 3 4 3 3 5 4 3 4 4 4 4 3 3 3
3 3 3 3 3 2 2 2 2 3 3 3 3 2 2 2 2 2 2 2 2 2 2 2 2 2 3 2 3 4 3 2 3 4 4 2 3 3 3 3 3 3 2
Wind_Direction
179 191 183 183 193 211 225 248 257 252 243 244 247 243 227 222 223 221 233 226 223 226 225 223 230 246 247 243 235 235 241 248 253 255 249 167 219 262 232 247 234 229 190
170 183 184 191 196 215 223 246 254 260 256 249 248 247 239 231 232 231 230 230 229 232 230 229 230 225 226 245 242 236 236 245 247 249 248 222 217 235 237 250 248 239 237
175 189 195 215 218 229 237 252 253 249 254 255 248 246 246 241 236 234 233 233 230 234 234 230 231 229 228 228 235 238 235 230 238 242 242 235 233 230 236 239 244 259 253
188 198 206 224 228 233 240 245 249 246 244 248 249 247 247 245 240 238 234 231 232 233 231 230 233 232 233 230 229 233 242 245 235 241 240 231 227 225 245 245 236 231 259
208 211 215 228 231 234 240 244 246 246 243 242 243 246 247 242 238 243 239 231 230 230 229 226 227 230 259 259 258 243 238 244 242 240 241 241 235 236 248 254 259 249 237
219 223 222 228 235 239 244 245 245 246 246 241 240 241 246 248 161 250 260 245 237 233 231 227 216 206 201 212 247 271 272 251 252 252 249 252 256 253 263 266 266 262 256
220 226 224 233 239 244 246 244 244 244 242 242 241 239 242 234 190 215 239 249 244 241 240 238 237 214 211 217 207 212 229 244 253 263 264 265 261 261 264 258 266 279 283
223 233 235 239 241 245 246 246 247 246 244 241 239 238 237 224 195 211 225 235 244 240 238 239 238 241 230 233 234 233 237 235 231 233 251 265 273 277 257 261 262 247 247
230 244 248 244 244 244 247 246 244 243 245 242 236 234 232 223 197 204 224 235 233 238 239 239 235 233 213 228 238 239 239 239 223 224 244 261 295 291 282 262 252 253 253
245 250 255 256 251 246 247 247 243 240 242 248 241 239 234 230 196 203 220 237 233 239 235 231 224 227 209 211 233 240 242 243 241 221 223 230 237 236 230 248 261 261 265
257 250 248 253 255 250 246 246 243 242 245 252 248 242 237 237 200 202 221 240 240 240 242 237 217 188 204 212 232 242 248 259 249 244 241 236 231 233 225 226 250 265 266
266 256 251 249 250 243 241 242 239 240 237 242 243 248 236 223 222 201 212 233 260 251 250 251 228 185 201 214 226 236 243 249 244 243 243 243 240 236 233 232 237 251 262
260 257 255 252 245 243 239 237 234 233 248 251 242 242 241 221 191 187 209 227 239 249 262 290 273 208 203 210 215 222 226 232 235 240 244 247 248 244 238 227 227 231 241
251 250 242 237 236 236 251 250 254 252 251 254 249 251 252 239 228 200 203 209 211 223 237 232 217 222 228 236 213 211 227 241 246 246 249 248 245 236 233 234 234 232 239
251 254 244 235 232 232 242 274 264 270 288 277 264 256 260 257 296 343 277 248 252 251 242 241 237 220 217 219 225 226 225 223 232 241 246 247 244 239 236 234 240 244 248
249 253 255 249 236 235 227 229 342 286 306 281 296 289 285 316 343 270 275 286 288 232 240 240 244 243 238 232 231 229 227 235 240 241 244 244 245 244 241 235 234 244 250
255 260 264 262 249 248 245 244 239 224 223 237 248 262 263 294 298 261 248 249 234 196 226 240 244 248 252 252 249 245 239 239 245 245 245 246 248 248 245 244 243 247 252
256 250 263 267 269 265 260 257 255 254 233 222 213 221 228 238 254 257 233 202 204 203 231 248 254 255 257 257 257 256 249 240 235 240 243 247 249 248 248 251 251 254 258
265 263 261 276 274 272 268 259 259 272 270 253 240 188 207 215 221 236 207 222 234 229 231 237 250 260 264 263 261 260 257 251 249 246 247 251 250 249 249 251 252 246 253
249 270 276 276 273 274 274 271 271 277 288 300 294 297 180 208 226 209 217 239 253 257 255 255 260 268 271 271 269 267 262 256 255 253 259 259 254 252 252 251 254 254 251
256 211 218 259 276 288 292 291 285 272 274 277 284 319 317 258 257 252 242 249 264 269 267 269 270 267 265 269 272 268 267 262 261 265 268 268 266 261 258 256 256 257 258
267 256 241 256 274 283 292 289 281 268 268 269 266 227 194 254 277 281 279 278 276 281 284 279 281 295 298 288 286 283 276 269 272 273 271 271 263 259 257 253 254 254 250
261 263 253 249 261 258 256 260 262 265 268 272 275 273 245 268 286 293 292 291 290 288 294 302 303 304 304 299 296 297 295 294 292 288 283 279 271 261 256 253 254 256 253
250 253 258 254 251 257 261 262 261 259 259 269 278 280 280 270 278 287 290 292 286 282 283 286 298 314 320 313 303 307 339 329 308 283 278 284 284 277 263 257 258 261 261
251 252 256 257 256 257 261 270 278 282 281 280 280 282 278 270 264 273 283 282 276 275 286 293 298 307 321 328 335 1 23 357 327 314 297 287 286 281 272 266 260 256 251
258 264 268 273 277 278 277 277 281 285 288 290 288 286 278 277 280 289 292 295 294 294 299 300 329 343 343 334 18 36 40 12 342 319 303 300 300 302 297 278 258 248 232